Hourly Data Report for April 28, 2016

All times are specified in Local Standard Time (LST). Add 1 hour to adjust for Daylight Saving Time where and when it is observed.

Metadata including Station Name, Province, Latitude, Longitude, Elevation, Climate ID, WMO ID, TC ID
PUVIRNITUQ A
QUEBEC
Latitude: 60°03'08.000" N Longitude: 77°17'15.000" W Elevation: 25.30 m
Climate ID: 7106223 WMO ID: TC ID: YPX
Hourly Data Report for April 28, 2016
Temp Definition
°C

Dew Point Temp Definition
°C

Rel Hum Definition
%

Wind Dir Definition
10's deg
Wind Spd Definition
km/h

Visibility Definition
km

Stn Press Definition
kPa

Hmdx Definition

Wind Chill Definition

Weather Definition

00:00 Legend Double Dagger 1.4 -0.4 88 5 24 16.1 101.53 LegendNANA
01:00 Legend Double Dagger 1.1 -0.2 91 4 18 16.1 101.59 LegendNANA
02:00 Legend Double Dagger 0.9 -0.3 92 4 17 16.1 101.59 LegendNANA
03:00 Legend Double Dagger 0.7 -0.3 93 3 13 16.1 101.67 LegendNANA
04:00 Legend Double Dagger 0.5 -0.3 94 4 13 16.1 101.69 LegendNANA
05:00 Legend Double Dagger 0.6 -0.4 93 6 15 16.1 101.72 LegendNANA
06:00 Legend Double Dagger 0.1 -0.8 94 8 11 16.1 101.79 LegendNANA
07:00 Legend Double Dagger 0.6 -0.6 92 7 8 16.1 101.84 LegendNANA
08:00 Legend Double Dagger 0.8 -0.8 89 12 8 16.1 101.88 LegendNANA
09:00 Legend Double Dagger 1.0 -0.9 87 10 9 16.1 101.91 LegendNANA
10:00 Legend Double Dagger 1.2 -0.7 87 8 9 16.1 101.90 LegendNANA
11:00 Legend Double Dagger 1.3 -0.6 87 11 11 16.1 101.94 LegendNANA
12:00 Legend Double Dagger 0.1 -0.6 95 20 13 2.4 101.95 Fog
13:00 Legend Double Dagger -0.1 -0.8 95 19 15 16.1 101.96 -5 LegendNANA
14:00 Legend Double Dagger 0.0 -1.0 93 21 9 16.1 101.99 -3 LegendNANA
15:00 Legend Double Dagger 0.2 -0.8 93 20 11 16.1 101.99 LegendNANA
16:00 Legend Double Dagger -0.1 -1.1 93 20 9 16.1 102.00 -3 LegendNANA
17:00 Legend Double Dagger -0.2 -1.2 93 20 5 16.1 102.01 -2 LegendNANA
18:00 Legend Double Dagger -0.3 -1.2 94 23 8 16.1 102.02 -3 LegendNANA
19:00 Legend Double Dagger -0.4 -1.1 95 25 8 16.1 102.03 -3 LegendNANA
20:00 Legend Double Dagger -0.5 -1.1 96 28 5 16.1 102.02 -2 LegendNANA
21:00 Legend Double Dagger -0.3 -0.9 96 LegendMM LegendMM LegendMM 102.01 LegendNANA
22:00 Legend Double Dagger -0.4 -0.7 98 LegendMM LegendMM LegendMM 102.00 LegendNANA
23:00 Legend Double Dagger -0.6 -0.9 98 LegendMM LegendMM LegendMM 101.99 LegendNANA

Notes on Data Quality.

Legend
  • E = Estimated
  • M = Missing
  • NA = Not Available
  • ‡ = Partner data that is not subject to review by the National Climate Archives